Indianapolis, IN

11:58 PM EST on November 18, 2019 (GMT -0500)
Indianapolis Terry

Weather History for KTYQ - June, 2019

Change the Weather History Date:

Monday, June 10, 2019

  Actual Average (KEYE) Record (KEYE)
Temperature  
Mean Temperature 61 °F -  
Max Temperature 69 °F 75 °F 90 °F (2011)
Min Temperature 52 °F 60 °F 55 °F (1997)
Degree Days  
Heating Degree Days 4    
Growing Degree Days 11 (Base 50)    
Moisture  
Dew Point 60 °F    
Average Humidity 86    
Maximum Humidity 100    
Minimum Humidity 44    
Precipitation  
Precipitation 0.07 in - - ()
Sea Level Pressure  
Sea Level Pressure 30.04 in    
Wind  
Wind Speed 7 mph ()    
Max Wind Speed 20 mph    
Max Gust Speed 25 mph    
Visibility 7.0 miles    
Events Rain    
Averages and records for this station are not official NWS values.
T = Trace of Precipitation, MM = Missing Value Source: Averaged Metar Reports

Daily Weather History Graph

Daily Weather History Graph

Search for Another Location

Airport or City:

Astronomy

Jun. 10, 2019 Rise Set
Actual Time 6:15 AM EDT 9:13 PM EDT
Civil Twilight 5:43 AM EDT 9:46 PM EDT
Nautical Twilight 5:01 AM EDT 10:27 PM EDT
Astronomical Twilight 4:13 AM EDT 11:15 PM EDT
Moon 2:03 PM EDT (6/10) 2:27 AM EDT (6/10)
Length of Visible Light 16h 02m
Length of Day
14h 57m
First Quarter, 55% of the Moon is Illuminated
Jun 10
First Quarter
Jun 17
Full
Jun 25
Last Quarter
Jul 2
New
Jul 9
First Quarter

Hourly Weather History & Observations

Time (EDT) Temp. Dew Point Humidity Pressure Visibility Wind Dir Wind Speed Gust Speed Precip Events Conditions
12:15 AM 68.4 °F 68.4 °F 100% 29.94 in 3.0 mi ESE 3.5 mph - N/A   Overcast
12:35 AM 68.4 °F 68.4 °F 100% 29.93 in 7.0 mi Calm Calm - N/A   Overcast
12:55 AM 68.4 °F 68.4 °F 100% 29.93 in 7.0 mi Calm Calm - N/A   Overcast
1:15 AM 68.4 °F 68.4 °F 100% 29.93 in 5.0 mi Calm Calm - N/A   Overcast
1:35 AM 68.4 °F 68.4 °F 100% 29.92 in 4.0 mi Calm Calm - 0.04 in Rain Light Rain
1:55 AM 68.5 °F 68.5 °F 100% 29.92 in 3.0 mi Calm Calm - 0.04 in Rain Rain
2:15 AM 68.5 °F 68.5 °F 100% 29.92 in 3.0 mi WNW 3.5 mph - N/A   Overcast
2:35 AM 68.4 °F 68.4 °F 100% 29.91 in 3.0 mi WNW 6.9 mph - N/A   Overcast
2:55 AM 68.0 °F 68.0 °F 100% 29.91 in 4.0 mi NW 8.1 mph - N/A   Overcast
3:15 AM 67.8 °F 67.8 °F 100% 29.91 in 4.0 mi NW 5.8 mph - N/A   Overcast
3:35 AM 67.1 °F 67.1 °F 100% 29.91 in 5.0 mi NW 8.1 mph - N/A   Mostly Cloudy
3:55 AM 67.1 °F 67.1 °F 100% 29.91 in 7.0 mi NW 6.9 mph - N/A   Mostly Cloudy
4:15 AM 66.7 °F 66.7 °F 100% 29.91 in 7.0 mi NW 4.6 mph - N/A   Mostly Cloudy
4:35 AM 66.4 °F 66.4 °F 100% 29.91 in 5.0 mi NW 6.9 mph - N/A   Overcast
4:55 AM 66.4 °F 66.4 °F 100% 29.91 in 5.0 mi NW 6.9 mph - N/A   Overcast
5:15 AM 66.4 °F 66.4 °F 100% 29.92 in 5.0 mi NW 8.1 mph - N/A   Overcast
5:35 AM 66.2 °F 66.2 °F 100% 29.92 in 4.0 mi NW 6.9 mph - N/A   Mostly Cloudy
5:55 AM 66.2 °F 66.2 °F 100% 29.93 in 4.0 mi NW 4.6 mph - N/A   Mostly Cloudy
6:15 AM 65.7 °F 65.7 °F 100% 29.93 in 4.0 mi NW 6.9 mph - N/A   Scattered Clouds
6:35 AM 65.7 °F 65.7 °F 100% 29.94 in 2.0 mi NW 6.9 mph - N/A   Overcast
6:55 AM 65.5 °F 65.5 °F 100% 29.95 in 2.0 mi NW 5.8 mph - N/A   Overcast
7:15 AM 65.5 °F 65.5 °F 100% 29.96 in 2.0 mi NW 4.6 mph - N/A   Overcast
7:35 AM 65.8 °F 65.8 °F 100% 29.96 in 2.0 mi NW 6.9 mph - N/A   Overcast
7:55 AM 65.8 °F 65.8 °F 100% 29.97 in 2.5 mi NW 9.2 mph - N/A   Overcast
8:15 AM 66.2 °F 66.2 °F 100% 29.98 in 2.0 mi NNW 8.1 mph - N/A   Overcast
8:35 AM 66.2 °F 66.2 °F 100% 29.98 in 2.0 mi North 9.2 mph - N/A   Overcast
8:55 AM 65.8 °F 65.8 °F 100% 29.99 in 2.5 mi NNW 11.5 mph 17.3 mph N/A   Overcast
9:15 AM 65.8 °F 65.8 °F 100% 29.99 in 2.5 mi NNW 11.5 mph 17.3 mph N/A Rain Light Rain
9:35 AM 65.7 °F 65.7 °F 100% 30.00 in 2.0 mi NW 6.9 mph - 0.01 in   Drizzle
9:55 AM 62.6 °F 62.6 °F 100% 30.02 in 2.0 mi NW 15.0 mph 24.2 mph 0.03 in   Overcast
10:15 AM 61.7 °F 61.7 °F 100% 30.03 in 4.0 mi NW 15.0 mph 25.3 mph N/A   Overcast
10:35 AM 61.7 °F 61.7 °F 100% 30.03 in 5.0 mi NW 12.7 mph 24.2 mph N/A   Overcast
10:55 AM 60.3 °F 60.3 °F 100% 30.04 in 5.0 mi NNW 16.1 mph 25.3 mph N/A Rain Rain
11:15 AM 60.3 °F 60.3 °F 100% 30.05 in 10.0 mi NNW 11.5 mph 21.9 mph N/A   Overcast
11:35 AM 59.9 °F 59.9 °F 100% 30.06 in 10.0 mi NNW 12.7 mph 24.2 mph N/A   Overcast
11:55 AM 59.7 °F 59.7 °F 100% 30.07 in 7.0 mi NNW 13.8 mph 24.2 mph N/A   Overcast
12:15 PM 59.2 °F 59.2 °F 100% 30.08 in 3.0 mi NNW 11.5 mph - N/A   Overcast
12:40 PM 59.2 °F 59.2 °F 100% 30.08 in 7.0 mi NW 12.7 mph 18.4 mph N/A   Overcast
12:55 PM 60.4 °F 60.4 °F 100% 30.08 in 10.0 mi NNW 16.1 mph 21.9 mph N/A   Overcast
1:15 PM 61.0 °F 59.7 °F 96% 30.09 in 10.0 mi NW 13.8 mph 21.9 mph N/A   Overcast
1:35 PM 61.3 °F 59.2 °F 93% 30.10 in 10.0 mi NW 13.8 mph 20.7 mph N/A   Overcast
1:55 PM 62.8 °F 58.8 °F 87% 30.10 in 10.0 mi NNW 15.0 mph 21.9 mph N/A   Overcast
2:15 PM 65.7 °F 61.0 °F 85% 30.10 in 10.0 mi NNW 12.7 mph 23.0 mph N/A   Mostly Cloudy
2:35 PM 65.1 °F 59.2 °F 81% 30.10 in 10.0 mi NNW 16.1 mph 23.0 mph N/A   Mostly Cloudy
2:55 PM 66.4 °F 58.1 °F 75% 30.11 in 10.0 mi NW 12.7 mph 23.0 mph N/A   Mostly Cloudy
3:15 PM 66.2 °F 58.3 °F 76% 30.11 in 10.0 mi NNW 16.1 mph 19.6 mph N/A   Mostly Cloudy
3:35 PM 67.5 °F 56.1 °F 67% 30.11 in 10.0 mi NNW 19.6 mph 24.2 mph N/A   Scattered Clouds
3:55 PM 68.4 °F 53.2 °F 58% 30.11 in 10.0 mi NW 15.0 mph 24.2 mph N/A   Clear
4:15 PM 68.2 °F 53.2 °F 59% 30.11 in 10.0 mi NNW 15.0 mph 23.0 mph N/A   Clear
4:35 PM 68.4 °F 53.6 °F 59% 30.11 in 10.0 mi NNW 11.5 mph 20.7 mph N/A   Clear
4:55 PM 69.1 °F 53.2 °F 57% 30.12 in 10.0 mi NNW 15.0 mph 21.9 mph N/A   Clear
5:15 PM 69.4 °F 54.7 °F 59% 30.12 in 10.0 mi NNW 12.7 mph 16.1 mph N/A   Clear
5:35 PM 69.1 °F 52.9 °F 56% 30.11 in 10.0 mi NNW 15.0 mph 20.7 mph N/A   Clear
5:55 PM 69.1 °F 52.9 °F 56% 30.12 in 10.0 mi NNW 11.5 mph 19.6 mph N/A   Clear
6:20 PM 69.8 °F 54.0 °F 57% 30.12 in 10.0 mi NNW 12.7 mph - N/A   Clear
6:35 PM 69.8 °F 54.1 °F 57% 30.12 in 10.0 mi NNW 10.4 mph 18.4 mph N/A   Clear
6:55 PM 69.8 °F 50.2 °F 50% 30.12 in 10.0 mi NNW 12.7 mph 23.0 mph N/A   Clear
7:15 PM 69.8 °F 49.1 °F 48% 30.12 in 10.0 mi North 17.3 mph 21.9 mph N/A   Clear
7:35 PM 68.9 °F 47.5 °F 46% 30.13 in 10.0 mi North 15.0 mph 25.3 mph N/A   Clear
7:55 PM 68.0 °F 45.5 °F 44% 30.14 in 10.0 mi North 13.8 mph 17.3 mph N/A   Clear
8:15 PM 67.1 °F 45.1 °F 45% 30.14 in 10.0 mi North 9.2 mph - N/A   Clear
8:35 PM 66.0 °F 46.6 °F 49% 30.15 in 10.0 mi North 8.1 mph - N/A   Clear
8:55 PM 63.7 °F 49.1 °F 59% 30.16 in 10.0 mi NNE 4.6 mph - N/A   Clear
9:15 PM 61.5 °F 50.2 °F 66% 30.16 in 10.0 mi NNE 4.6 mph - N/A   Clear
9:35 PM 59.9 °F 52.0 °F 75% 30.17 in 10.0 mi NNE 3.5 mph - N/A   Clear
9:55 PM 59.2 °F 52.0 °F 77% 30.17 in 10.0 mi Calm Calm - N/A   Clear
10:15 PM 58.1 °F 53.6 °F 85% 30.18 in 10.0 mi Calm Calm - N/A   Clear
10:35 PM 56.8 °F 54.1 °F 91% 30.19 in 10.0 mi Calm Calm - N/A   Clear
10:55 PM 55.2 °F 54.9 °F 99% 30.19 in 10.0 mi Calm Calm - N/A   Clear
11:15 PM 54.9 °F 54.7 °F 99% 30.19 in 10.0 mi Calm Calm - N/A   Clear
11:35 PM 53.4 °F 53.4 °F 100% 30.19 in 10.0 mi Calm Calm - N/A   Clear
11:55 PM 52.3 °F 52.3 °F 100% 30.20 in 10.0 mi Calm Calm - N/A   Clear